| time (UTC) | temp F | wind direction | speed MPH | gust MPH | rain 1hr in | rain 24hr in | rain mn in | humidity % | barometer mb |
| 20260504012010 | 59 | 0 | 0.0 | 1.0 | 0.00 | 0.00 | 0.00 | 36 | 1003.3 |
| 20260504011530 | 59 | 0 | 0.0 | 1.0 | 0.00 | 0.00 | 0.00 | 37 | 1003.3 |
| 20260504011012 | 59 | 0 | 0.0 | 2.0 | 0.00 | 0.00 | 0.00 | 38 | 1003.4 |
| 20260504010510 | 60 | 0 | 0.0 | 3.0 | 0.00 | 0.00 | 0.00 | 36 | 1003.3 |
| 20260504010030 | 60 | 269 | 0.0 | 3.0 | 0.00 | 0.00 | 0.00 | 35 | 1003.5 |
| 20260504005511 | 60 | 269 | 1.0 | 3.0 | 0.00 | 0.00 | 0.00 | 35 | 1003.3 |
| 20260504005018 | 61 | 269 | 1.0 | 3.0 | 0.00 | 0.00 | 0.00 | 35 | 1003.4 |
| 20260504004530 | 61 | 269 | 1.0 | 3.0 | 0.00 | 0.00 | 0.00 | 35 | 1003.4 |
| 20260504004014 | 61 | 269 | 1.0 | 4.0 | 0.00 | 0.00 | 0.00 | 34 | 1003.4 |
| 20260504003517 | 62 | 269 | 2.0 | 4.0 | 0.00 | 0.00 | 0.00 | 34 | 1003.4 |
| 20260504003035 | 62 | 284 | 2.0 | 4.0 | 0.00 | 0.00 | 0.00 | 33 | 1003.3 |
| 20260504002511 | 62 | 259 | 1.0 | 4.0 | 0.00 | 0.00 | 0.00 | 32 | 1003.3 |
| 20260504002016 | 62 | 268 | 1.0 | 6.0 | 0.00 | 0.00 | 0.00 | 33 | 1003.3 |
| 20260504001537 | 62 | 268 | 2.0 | 8.0 | 0.00 | 0.00 | 0.00 | 32 | 1003.3 |
| 20260504001010 | 63 | 275 | 3.0 | 8.0 | 0.00 | 0.00 | 0.00 | 32 | 1003.4 |
| 20260504000511 | 63 | 288 | 3.0 | 8.0 | 0.00 | 0.00 | 0.00 | 32 | 1003.4 |
| 20260504000032 | 63 | 267 | 1.0 | 9.0 | 0.00 | 0.00 | 0.00 | 34 | 1003.5 |
| 20260503235512 | 63 | 256 | 4.0 | 10.0 | 0.00 | 0.00 | 0.00 | 31 | 1003.5 |
| 20260503235011 | 63 | 222 | 5.0 | 10.0 | 0.00 | 0.00 | 0.00 | 30 | 1003.4 |
| 20260503234532 | 63 | 216 | 3.0 | 11.0 | 0.00 | 0.00 | 0.00 | 30 | 1003.5 |
| 20260503234012 | 64 | 261 | 5.0 | 11.0 | 0.00 | 0.00 | 0.00 | 31 | 1003.6 |
| 20260503233511 | 64 | 266 | 3.0 | 9.0 | 0.00 | 0.00 | 0.00 | 33 | 1003.5 |
| 20260503233030 | 64 | 271 | 3.0 | 12.0 | 0.00 | 0.00 | 0.00 | 32 | 1003.6 |
| 20260503232514 | 65 | 294 | 5.0 | 12.0 | 0.00 | 0.00 | 0.00 | 31 | 1003.5 |
| 20260503232014 | 64 | 217 | 2.0 | 9.0 | 0.00 | 0.00 | 0.00 | 31 | 1003.6 |
| 20260503231530 | 64 | 300 | 4.0 | 8.0 | 0.00 | 0.00 | 0.00 | 29 | 1003.6 |
| 20260503231013 | 65 | 261 | 3.0 | 9.0 | 0.00 | 0.00 | 0.00 | 31 | 1003.7 |
| 20260503230511 | 65 | 273 | 3.0 | 11.0 | 0.00 | 0.00 | 0.00 | 29 | 1003.7 |
| 20260503230034 | 65 | 273 | 6.0 | 11.0 | 0.00 | 0.00 | 0.00 | 28 | 1003.7 |
| 20260503225513 | 65 | 0 | 2.0 | 9.0 | 0.00 | 0.00 | 0.00 | 29 | 1003.6 |
| 20260503225014 | 65 | 318 | 2.0 | 9.0 | 0.00 | 0.00 | 0.00 | 30 | 1003.7 |
| 20260503224533 | 65 | 300 | 2.0 | 9.0 | 0.00 | 0.00 | 0.00 | 29 | 1003.6 |
| 20260503224012 | 65 | 277 | 1.0 | 7.0 | 0.00 | 0.00 | 0.00 | 28 | 1003.7 |
| 20260503223514 | 65 | 284 | 3.0 | 10.0 | 0.00 | 0.00 | 0.00 | 28 | 1003.7 |
| 20260503223033 | 65 | 324 | 3.0 | 12.0 | 0.00 | 0.00 | 0.00 | 27 | 1003.7 |
| 20260503222509 | 65 | 254 | 5.0 | 12.0 | 0.00 | 0.00 | 0.00 | 26 | 1003.7 |
| 20260503222015 | 65 | 268 | 5.0 | 12.0 | 0.00 | 0.00 | 0.00 | 26 | 1003.7 |
| 20260503221533 | 65 | 261 | 3.0 | 10.0 | 0.00 | 0.00 | 0.00 | 27 | 1003.6 |
| 20260503221009 | 65 | 281 | 3.0 | 9.0 | 0.00 | 0.00 | 0.00 | 31 | 1003.7 |
| 20260503220512 | 65 | 324 | 2.0 | 9.0 | 0.00 | 0.00 | 0.00 | 28 | 1003.7 |
| 20260503220032 | 65 | 286 | 3.0 | 8.0 | 0.00 | 0.00 | 0.00 | 27 | 1003.8 |
| 20260503215511 | 65 | 327 | 2.0 | 9.0 | 0.00 | 0.00 | 0.00 | 27 | 1003.7 |
| 20260503215012 | 65 | 0 | 2.0 | 10.0 | 0.00 | 0.00 | 0.00 | 26 | 1003.7 |
| 20260503214531 | 65 | 290 | 4.0 | 10.0 | 0.00 | 0.00 | 0.00 | 25 | 1003.7 |
| 20260503214012 | 65 | 265 | 6.0 | 10.0 | 0.00 | 0.00 | 0.00 | 25 | 1003.7 |
| 20260503213513 | 65 | 262 | 5.0 | 11.0 | 0.00 | 0.00 | 0.00 | 25 | 1003.8 |
| 20260503213033 | 65 | 330 | 4.0 | 11.0 | 0.00 | 0.00 | 0.00 | 27 | 1003.9 |
| 20260503212512 | 66 | 288 | 4.0 | 12.0 | 0.00 | 0.00 | 0.00 | 27 | 1003.7 |
| 20260503212013 | 66 | 216 | 6.0 | 12.0 | 0.00 | 0.00 | 0.00 | 24 | 1003.6 |
| 20260503211532 | 67 | 289 | 4.0 | 11.0 | 0.00 | 0.00 | 0.00 | 26 | 1003.8 |
| 20260503211010 | 66 | 315 | 2.0 | 10.0 | 0.00 | 0.00 | 0.00 | 27 | 1003.8 |
| 20260503210510 | 67 | 317 | 3.0 | 10.0 | 0.00 | 0.00 | 0.00 | 27 | 1003.7 |
| 20260503210033 | 67 | 272 | 3.0 | 11.0 | 0.00 | 0.00 | 0.00 | 25 | 1003.7 |
| 20260503205510 | 66 | 250 | 2.0 | 11.0 | 0.00 | 0.00 | 0.00 | 31 | 1003.6 |
| 20260503205012 | 66 | 313 | 3.0 | 12.0 | 0.00 | 0.00 | 0.00 | 27 | 1003.7 |
| 20260503204529 | 66 | 297 | 4.0 | 12.0 | 0.00 | 0.00 | 0.00 | 27 | 1003.7 |
| 20260503204017 | 66 | 280 | 2.0 | 11.0 | 0.00 | 0.00 | 0.00 | 27 | 1003.8 |
| 20260503203513 | 67 | 243 | 4.0 | 11.0 | 0.00 | 0.00 | 0.00 | 28 | 1003.8 |
| 20260503203032 | 66 | 254 | 4.0 | 12.0 | 0.00 | 0.00 | 0.00 | 26 | 1003.7 |
| 20260503202509 | 66 | 258 | 5.0 | 12.0 | 0.00 | 0.00 | 0.00 | 28 | 1003.9 |
| 20260503202011 | 66 | 305 | 4.0 | 12.0 | 0.00 | 0.00 | 0.00 | 31 | 1003.9 |
| 20260503201528 | 67 | 278 | 3.0 | 11.0 | 0.00 | 0.00 | 0.00 | 30 | 1003.9 |
| 20260503201011 | 67 | 263 | 2.0 | 11.0 | 0.00 | 0.00 | 0.00 | 32 | 1004.0 |
| 20260503200514 | 67 | 296 | 4.0 | 11.0 | 0.00 | 0.00 | 0.00 | 29 | 1004.0 |
| 20260503200028 | 67 | 265 | 4.0 | 9.0 | 0.00 | 0.00 | 0.00 | 33 | 1003.8 |
| 20260503195509 | 67 | 240 | 2.0 | 10.0 | 0.00 | 0.00 | 0.00 | 32 | 1003.9 |
| 20260503195014 | 68 | 238 | 5.0 | 10.0 | 0.00 | 0.00 | 0.00 | 32 | 1004.0 |
| 20260503194533 | 68 | 233 | 2.0 | 12.0 | 0.00 | 0.00 | 0.00 | 33 | 1004.0 |
| 20260503194009 | 68 | 267 | 2.0 | 12.0 | 0.00 | 0.00 | 0.00 | 33 | 1004.0 |
| 20260503193511 | 67 | 296 | 3.0 | 14.0 | 0.00 | 0.00 | 0.00 | 35 | 1004.0 |
| 20260503193029 | 68 | 295 | 3.0 | 14.0 | 0.00 | 0.00 | 0.00 | 32 | 1004.1 |
| 20260503192509 | 68 | 280 | 4.0 | 14.0 | 0.00 | 0.00 | 0.00 | 32 | 1004.2 |
| 20260503192010 | 67 | 245 | 2.0 | 14.0 | 0.00 | 0.00 | 0.00 | 34 | 1004.1 |
| 20260503191536 | 68 | 220 | 6.0 | 14.0 | 0.00 | 0.00 | 0.00 | 30 | 1004.1 |
| 20260503191007 | 68 | 265 | 4.0 | 14.0 | 0.00 | 0.00 | 0.00 | 34 | 1004.2 |
| 20260503190511 | 68 | 288 | 4.0 | 14.0 | 0.00 | 0.00 | 0.00 | 33 | 1004.2 |
| 20260503190028 | 67 | 281 | 4.0 | 11.0 | 0.00 | 0.00 | 0.00 | 36 | 1004.3 |
| 20260503185510 | 67 | 305 | 1.0 | 10.0 | 0.00 | 0.00 | 0.00 | 36 | 1004.3 |
| 20260503185011 | 68 | 263 | 4.0 | 10.0 | 0.00 | 0.00 | 0.00 | 36 | 1004.4 |
| 20260503184530 | 68 | 294 | 4.0 | 10.0 | 0.00 | 0.00 | 0.00 | 38 | 1004.4 |
| 20260503184010 | 67 | 262 | 4.0 | 10.0 | 0.00 | 0.00 | 0.00 | 36 | 1004.3 |
| 20260503183514 | 67 | 313 | 2.0 | 13.0 | 0.00 | 0.00 | 0.00 | 37 | 1004.4 |
| 20260503183029 | 67 | 236 | 2.0 | 14.0 | 0.00 | 0.00 | 0.00 | 41 | 1004.5 |
| 20260503182507 | 67 | 268 | 5.0 | 14.0 | 0.00 | 0.00 | 0.00 | 37 | 1004.3 |
| 20260503182013 | 67 | 265 | 3.0 | 14.0 | 0.00 | 0.00 | 0.00 | 39 | 1004.4 |
| 20260503181529 | 67 | 300 | 2.0 | 12.0 | 0.00 | 0.00 | 0.00 | 42 | 1004.6 |
| 20260503181012 | 67 | 270 | 4.0 | 12.0 | 0.00 | 0.00 | 0.00 | 38 | 1004.6 |
| 20260503180515 | 66 | 274 | 2.0 | 11.0 | 0.00 | 0.00 | 0.00 | 41 | 1004.6 |
| 20260503180043 | 67 | 279 | 5.0 | 11.0 | 0.00 | 0.00 | 0.00 | 40 | 1004.8 |
| 20260503175510 | 67 | 274 | 2.0 | 11.0 | 0.00 | 0.00 | 0.00 | 43 | 1004.8 |
| 20260503175013 | 66 | 275 | 4.0 | 11.0 | 0.00 | 0.00 | 0.00 | 41 | 1004.9 |
| 20260503174532 | 66 | 299 | 3.0 | 11.0 | 0.00 | 0.00 | 0.00 | 40 | 1004.8 |
| 20260503174010 | 65 | 288 | 2.0 | 13.0 | 0.00 | 0.00 | 0.00 | 42 | 1005.0 |
| 20260503173512 | 65 | 321 | 2.0 | 13.0 | 0.00 | 0.00 | 0.00 | 42 | 1005.1 |
| 20260503173030 | 65 | 290 | 3.0 | 9.0 | 0.00 | 0.00 | 0.00 | 44 | 1004.9 |
| 20260503172512 | 65 | 272 | 4.0 | 9.0 | 0.00 | 0.00 | 0.00 | 43 | 1005.1 |
| 20260503172011 | 64 | 276 | 2.0 | 8.0 | 0.00 | 0.00 | 0.00 | 44 | 1005.1 |
| 20260503171530 | 65 | 296 | 3.0 | 10.0 | 0.00 | 0.00 | 0.00 | 45 | 1005.1 |
| 20260503171012 | 64 | 300 | 3.0 | 11.0 | 0.00 | 0.00 | 0.00 | 47 | 1005.1 |
| 20260503170512 | 65 | 303 | 2.0 | 11.0 | 0.00 | 0.00 | 0.00 | 44 | 1005.1 |
| 20260503151009 | 62 | 258 | 2.0 | 8.0 | 0.00 | 0.00 | 0.00 | 52 | 1005.2 |
| 20260503150511 | 61 | 250 | 2.0 | 6.0 | 0.00 | 0.00 | 0.00 | 52 | 1005.1 |
| 20260503131009 | 52 | 215 | 0.0 | 3.0 | 0.00 | 0.00 | 0.00 | 71 | 1005.5 |
| 20260503130511 | 51 | 215 | 1.0 | 3.0 | 0.00 | 0.00 | 0.00 | 73 | 1005.6 |
| 20260503110510 | 47 | 0 | 0.0 | 0.0 | 0.00 | 0.00 | 0.00 | 78 | 1005.2 |
| 20260503090512 | 51 | 164 | 1.0 | 5.0 | 0.00 | 0.00 | 0.00 | 75 | 1006.1 |
| 20260503081532 | 52 | 0 | 0.0 | 4.0 | 0.00 | 0.00 | 0.00 | 75 | 1006.9 |
| 20260503081009 | 52 | 190 | 1.0 | 5.0 | 0.00 | 0.00 | 0.00 | 73 | 1006.9 |
| 20260503080512 | 52 | 190 | 1.0 | 8.0 | 0.00 | 0.00 | 0.00 | 73 | 1007.0 |
| 20260503072510 | 52 | 215 | 0.0 | 4.0 | 0.00 | 0.00 | 0.00 | 75 | 1007.8 |
| 20260503072015 | 52 | 0 | 1.0 | 4.0 | 0.00 | 0.00 | 0.00 | 74 | 1007.8 |
| 20260503071532 | 52 | 215 | 2.0 | 5.0 | 0.00 | 0.00 | 0.00 | 74 | 1007.9 |
| 20260503071011 | 52 | 215 | 3.0 | 5.0 | 0.00 | 0.00 | 0.00 | 74 | 1007.9 |
| 20260503070512 | 52 | 215 | 3.0 | 5.0 | 0.00 | 0.00 | 0.00 | 73 | 1008.0 |
| 20260503060104 | 53 | 0 | 0.0 | 4.0 | 0.00 | 0.00 | 0.00 | 65 | 1008.8 |
| 20260503055013 | 53 | 265 | 2.0 | 4.0 | 0.00 | 0.00 | 0.00 | 63 | 1008.9 |
| 20260503054536 | 53 | 265 | 1.0 | 7.0 | 0.00 | 0.00 | 0.00 | 63 | 1008.9 |
| 20260503054010 | 53 | 265 | 2.0 | 7.0 | 0.00 | 0.00 | 0.00 | 63 | 1009.1 |
| 20260503053513 | 53 | 273 | 2.0 | 7.0 | 0.00 | 0.00 | 0.00 | 63 | 1009.0 |
| 20260503053032 | 54 | 0 | 1.0 | 3.0 | 0.00 | 0.00 | 0.00 | 64 | 1009.0 |
| 20260503052509 | 54 | 260 | 1.0 | 3.0 | 0.00 | 0.00 | 0.00 | 64 | 1009.0 |
| 20260503052013 | 54 | 260 | 0.0 | 4.0 | 0.00 | 0.00 | 0.00 | 63 | 1008.9 |
| 20260503051529 | 54 | 260 | 1.0 | 6.0 | 0.00 | 0.00 | 0.00 | 62 | 1009.0 |
| 20260503051009 | 54 | 242 | 2.0 | 6.0 | 0.00 | 0.00 | 0.00 | 62 | 1008.9 |
| 20260503050511 | 54 | 236 | 2.0 | 6.0 | 0.00 | 0.00 | 0.00 | 61 | 1009.0 |
| 20260503050033 | 55 | 254 | 1.0 | 5.0 | 0.00 | 0.00 | 0.00 | 61 | 1008.9 |
| 20260503045510 | 55 | 238 | 2.0 | 7.0 | 0.00 | 0.00 | 0.00 | 61 | 1008.9 |
| 20260503045011 | 55 | 0 | 1.0 | 7.0 | 0.00 | 0.00 | 0.00 | 60 | 1008.9 |
| 20260503044529 | 55 | 233 | 2.0 | 9.0 | 0.00 | 0.00 | 0.00 | 60 | 1009.0 |
| 20260503044011 | 55 | 279 | 2.0 | 9.0 | 0.00 | 0.00 | 0.00 | 60 | 1008.9 |
| 20260503043510 | 55 | 225 | 4.0 | 12.0 | 0.00 | 0.00 | 0.00 | 59 | 1008.9 |
| 20260503043040 | 55 | 0 | 4.0 | 12.0 | 0.00 | 0.00 | 0.00 | 59 | 1008.9 |
| 20260503042513 | 55 | 211 | 5.0 | 12.0 | 0.00 | 0.00 | 0.00 | 57 | 1009.0 |
| 20260503042017 | 55 | 226 | 4.0 | 10.0 | 0.00 | 0.00 | 0.00 | 57 | 1008.9 |
| 20260503041530 | 55 | 219 | 4.0 | 10.0 | 0.00 | 0.00 | 0.00 | 56 | 1009.0 |
| 20260503041016 | 55 | 205 | 3.0 | 10.0 | 0.00 | 0.00 | 0.00 | 57 | 1009.1 |
| 20260503040510 | 55 | 219 | 4.0 | 10.0 | 0.00 | 0.00 | 0.00 | 57 | 1009.2 |
| 20260503040028 | 55 | 225 | 3.0 | 7.0 | 0.00 | 0.00 | 0.00 | 60 | 1009.2 |
| 20260503035510 | 55 | 227 | 2.0 | 7.0 | 0.00 | 0.00 | 0.00 | 58 | 1009.2 |
| 20260503035010 | 55 | 227 | 1.0 | 5.0 | 0.00 | 0.00 | 0.00 | 55 | 1009.2 |
| 20260503034528 | 55 | 227 | 0.0 | 5.0 | 0.00 | 0.00 | 0.00 | 57 | 1009.2 |
| 20260503034006 | 55 | 205 | 1.0 | 7.0 | 0.00 | 0.00 | 0.00 | 60 | 1009.3 |
| 20260503033514 | 56 | 228 | 3.0 | 8.0 | 0.00 | 0.00 | 0.00 | 60 | 1009.3 |
| 20260503033034 | 56 | 222 | 4.0 | 10.0 | 0.00 | 0.00 | 0.00 | 58 | 1009.2 |
| 20260503032511 | 55 | 226 | 4.0 | 10.0 | 0.00 | 0.00 | 0.00 | 59 | 1009.4 |
| 20260503032016 | 55 | 280 | 3.0 | 8.0 | 0.00 | 0.00 | 0.00 | 57 | 1009.6 |
| 20260503031530 | 54 | 263 | 3.0 | 8.0 | 0.00 | 0.00 | 0.00 | 54 | 1009.6 |
| 20260503031011 | 54 | 211 | 3.0 | 8.0 | 0.00 | 0.00 | 0.00 | 55 | 1009.6 |
| 20260503030509 | 54 | 212 | 1.0 | 8.0 | 0.00 | 0.00 | 0.00 | 57 | 1009.8 |
| 20260503030030 | 54 | 225 | 2.0 | 6.0 | 0.00 | 0.00 | 0.00 | 54 | 1009.9 |
| 20260503025510 | 54 | 226 | 2.0 | 6.0 | 0.00 | 0.00 | 0.00 | 54 | 1009.9 |
| 20260503025008 | 54 | 210 | 1.0 | 6.0 | 0.00 | 0.00 | 0.00 | 58 | 1010.0 |
| 20260503024531 | 54 | 205 | 2.0 | 6.0 | 0.00 | 0.00 | 0.00 | 57 | 1009.9 |
| 20260503024010 | 54 | 197 | 3.0 | 7.0 | 0.00 | 0.00 | 0.00 | 55 | 1009.9 |
| 20260503023514 | 54 | 190 | 2.0 | 10.0 | 0.00 | 0.00 | 0.00 | 58 | 1009.8 |
| 20260503023029 | 54 | 185 | 3.0 | 10.0 | 0.00 | 0.00 | 0.00 | 58 | 1009.8 |
| 20260503022508 | 54 | 194 | 5.0 | 10.0 | 0.00 | 0.00 | 0.00 | 54 | 1009.9 |
| 20260503022014 | 54 | 196 | 2.0 | 7.0 | 0.00 | 0.00 | 0.00 | 55 | 1010.0 |
| 20260503021541 | 54 | 196 | 3.0 | 8.0 | 0.00 | 0.00 | 0.00 | 53 | 1009.9 |
| 20260503021009 | 54 | 181 | 3.0 | 9.0 | 0.00 | 0.00 | 0.00 | 55 | 1010.0 |
| 20260503020509 | 55 | 195 | 5.0 | 9.0 | 0.00 | 0.00 | 0.00 | 55 | 1010.0 |
| 20260503020030 | 55 | 172 | 4.0 | 9.0 | 0.00 | 0.00 | 0.00 | 54 | 1010.0 |
| 20260503015516 | 55 | 183 | 5.0 | 9.0 | 0.00 | 0.00 | 0.00 | 56 | 1010.0 |
| 20260503015013 | 55 | 180 | 5.0 | 8.0 | 0.00 | 0.00 | 0.00 | 57 | 1010.1 |
| 20260503014529 | 55 | 184 | 4.0 | 7.0 | 0.00 | 0.00 | 0.00 | 55 | 1010.0 |
| 20260503014011 | 55 | 186 | 3.0 | 6.0 | 0.00 | 0.00 | 0.00 | 55 | 1010.1 |
| 20260503013512 | 55 | 171 | 3.0 | 6.0 | 0.00 | 0.00 | 0.00 | 54 | 1010.0 |
| 20260503013031 | 55 | 180 | 2.0 | 6.0 | 0.00 | 0.00 | 0.00 | 56 | 1010.1 |
| 20260503012509 | 55 | 180 | 3.0 | 6.0 | 0.00 | 0.00 | 0.00 | 55 | 1010.0 |